Location: Pallagorio
(39.3000°N, 16.9000°E)
Time: 21:56:21
(UTC+00:00)

CZ-2C R/B - Pass Details

Date: 24 January 2021
Orbit: 704 x 908 km, 98.1° (Epoch: 02 March)

Event Time Altitude Azimuth Distance (km) Brightness Sun altitude
Rises 16:25:38 0° 139° (SE) 3,297 6.1 -4.7°
Reaches altitude 10° 16:28:06 10° 130° (SE) 2,403 5.3 -5.2°
Maximum altitude 16:32:49 33° 68° (ENE) 1,386 3.8 -6.1°
Drops below altitude 10° 16:37:47 10° 6° (N) 2,528 5.4 -7.0°
Sets 16:40:26 0° 357° (N) 3,494 6.2 -7.4°
